Regional Weather Roundup
Issued by NWS

Home | Current Version | Previous Version | Text Only | Print | Product List | Glossary Off
Versions: 1 2 3 4 5 6 7 8 9 10 11 12 13 14 15 16 17 18 19 20 21 22 23 24 25 26 27

000
ASUS45 KCYS 311010
RWRWY

WYOMING REGIONAL WEATHER ROUNDUP
NATIONAL WEATHER SERVICE CHEYENNE WY
400 AM MDT TUE MAY 31 2016

NOTE:  "FAIR" INDICATES FEW OR NO CLOUDS BELOW 12,000 FEET
WITH NO SIGNIFICANT WEATHER AND/OR OBSTRUCTIONS TO VISIBILITY.

WYZ001-311100-
YELLOWSTONE NATIONAL PARK

CITY           SKY/WX    TMP DP  RH WIND       PRES   REMARKS
LK YELLOWSTONE   N/A     27  22  81 NW3       30.25F
W YELLOWSTONE  NOT AVBL

$$
WYZ002>013-054>058-071-098>099-311100-
NORTHERN WYOMING

CITY           SKY/WX    TMP DP  RH WIND       PRES   REMARKS
JACKSON        FAIR      37  34  87 NE8       30.18S WCI  31
CODY           FAIR      37  32  81 S3        30.15F
GREYBULL       FAIR      46  33  60 NW8       30.11F
WORLAND        CLOUDY    50  34  54 W6        30.12S
SHERIDAN       FAIR      47  34  60 W13       30.08F
BUFFALO        FAIR      44  30  57 NW10      30.12R
GILLETTE       FAIR      44  41  89 W15       30.07S
HULETT         CLOUDY    43  37  81 SW12      30.03F
NEWCASTLE      FAIR      39  32  75 N3        30.08F

$$
WYZ014>020-022>026-101>103-311100-
CENTRAL WYOMING

CITY           SKY/WX    TMP DP  RH WIND       PRES   REMARKS
BIG PINEY      FAIR      36  28  73 CALM      30.18F
PINEDALE       FAIR      32  32 100 W6        30.19S WCI  26
DUBOIS         PTSUNNY   37  32  81 NW7       30.18F WCI  32
LANDER         CLOUDY    47  39  74 CALM      30.13S
RIVERTON       MOCLDY    45  37  73 NE7       30.16R
CASPER         FAIR      35  32  88 SW5       30.14S WCI  31
DOUGLAS          N/A    N/A N/A N/A MISG      30.14S

$$
WYZ021-027>030-104>119-311100-
SOUTHERN WYOMING

CITY           SKY/WX    TMP DP  RH WIND       PRES   REMARKS
EVANSTON       FAIR      44  34  67 SE8       30.16F
KEMMERER         N/A     36  32  87 NW7       30.18S WCI  30
FORT BRIDGER   SUNNY     46  30  53 W7        30.19F
ROCK SPRINGS   FAIR      41  38  89 E7        30.17S
DIXON          FAIR      41  35  78 SE7       30.16R
RAWLINS        MOCLDY    41  36  82 NE7       30.16F
SARATOGA       PTSUNNY   36  36 100 S3        30.16S
LARAMIE        CLOUDY    42  34  73 SE7       30.16F
CHEYENNE       CLOUDY    45  38  76 N10       30.15S
TORRINGTON     CLOUDY    48  40  73 NW8       30.10F
PINE BLUFFS    PTSUNNY   41  37  87 NW5       30.14R

$$




USA.gov is the U.S. government's official web portal to all federal, state and local government web resources and services.